Total_Precipitation_Accumulation
0.76 0.76 0.77 0.80 0.84 0.89 0.96 0.99 0.98 1.02 1.02 1.03 1.04 1.06 1.05 1.09 1.13 1.16 1.12 1.09 1.11 1.10 1.08 1.11 1.12 1.11 1.13 1.11 1.16 1.21 1.26 1.32 1.31 1.01 0.82 0.78 0.82 0.83 0.85 0.81 0.78 0.80 0.79
0.69 0.67 0.67 0.70 0.72 0.74 0.76 0.81 0.82 0.85 0.89 0.91 0.92 0.93 0.90 0.88 0.93 0.97 1.00 0.98 0.98 0.99 1.02 1.07 1.10 1.11 1.17 1.19 1.23 1.27 1.29 1.27 1.27 1.14 0.92 0.82 0.77 0.73 0.72 0.70 0.67 0.66 0.63
0.50 0.49 0.51 0.52 0.55 0.61 0.64 0.64 0.67 0.72 0.77 0.80 0.81 0.83 0.84 0.82 0.83 0.85 0.86 0.87 0.88 0.88 0.89 0.92 0.94 0.99 1.05 1.07 1.12 1.18 1.19 1.19 1.17 1.08 0.89 0.74 0.68 0.66 0.70 0.68 0.62 0.59 0.55
0.37 0.37 0.39 0.42 0.45 0.48 0.51 0.50 0.50 0.54 0.60 0.64 0.69 0.72 0.73 0.75 0.78 0.82 0.84 0.84 0.82 0.81 0.81 0.83 0.86 0.91 0.95 1.01 1.06 1.09 1.12 1.13 1.14 1.12 1.01 0.84 0.70 0.64 0.66 0.67 0.63 0.55 0.50
0.40 0.39 0.38 0.38 0.40 0.42 0.43 0.44 0.43 0.44 0.44 0.47 0.53 0.61 0.66 0.68 0.72 0.77 0.79 0.82 0.82 0.82 0.84 0.89 0.93 1.03 1.04 1.01 0.98 0.96 0.99 1.05 1.07 1.07 0.98 0.84 0.71 0.64 0.64 0.59 0.58 0.56 0.54
0.47 0.43 0.40 0.38 0.38 0.36 0.34 0.34 0.35 0.36 0.37 0.40 0.45 0.49 0.56 0.63 0.79 0.78 0.74 0.75 0.82 0.86 0.87 0.87 0.91 1.00 0.98 0.97 0.92 0.87 0.89 0.97 1.01 0.97 0.86 0.72 0.57 0.49 0.49 0.55 0.61 0.68 0.66
0.51 0.47 0.42 0.38 0.37 0.34 0.31 0.31 0.33 0.35 0.38 0.42 0.44 0.48 0.54 0.67 0.84 0.80 0.84 0.77 0.79 0.84 0.86 0.83 0.79 0.76 0.78 0.70 0.75 0.81 0.82 0.82 0.79 0.75 0.72 0.59 0.51 0.47 0.55 0.66 0.68 0.67 0.57
0.53 0.51 0.50 0.49 0.50 0.52 0.51 0.52 0.52 0.51 0.53 0.58 0.63 0.66 0.69 0.78 0.84 0.76 0.73 0.68 0.71 0.73 0.71 0.69 0.64 0.59 0.57 0.58 0.61 0.67 0.59 0.55 0.55 0.52 0.51 0.48 0.49 0.52 0.61 0.72 0.76 0.78 0.68
0.69 0.68 0.68 0.72 0.77 0.80 0.82 0.81 0.80 0.81 0.81 0.79 0.77 0.73 0.69 0.69 0.69 0.64 0.60 0.55 0.56 0.55 0.52 0.51 0.51 0.48 0.55 0.63 0.58 0.54 0.49 0.47 0.52 0.55 0.57 0.57 0.62 0.67 0.69 0.76 0.85 0.94 0.84
0.76 0.80 0.83 0.89 0.96 0.93 0.91 0.88 0.81 0.75 0.74 0.73 0.71 0.67 0.61 0.54 0.49 0.44 0.42 0.39 0.39 0.36 0.35 0.35 0.41 0.42 0.52 0.59 0.53 0.50 0.47 0.40 0.41 0.46 0.48 0.49 0.48 0.52 0.63 0.63 0.72 0.96 0.87
0.71 0.72 0.75 0.74 0.76 0.74 0.72 0.69 0.64 0.57 0.51 0.46 0.43 0.40 0.35 0.33 0.32 0.31 0.31 0.29 0.30 0.31 0.31 0.29 0.31 0.41 0.46 0.50 0.51 0.45 0.44 0.48 0.45 0.44 0.46 0.47 0.47 0.48 0.50 0.50 0.56 0.82 1.01
0.50 0.48 0.45 0.41 0.38 0.38 0.39 0.40 0.39 0.35 0.30 0.27 0.24 0.23 0.20 0.20 0.22 0.24 0.28 0.31 0.34 0.32 0.30 0.28 0.30 0.42 0.48 0.49 0.46 0.45 0.52 0.55 0.48 0.49 0.50 0.48 0.46 0.44 0.42 0.43 0.47 0.53 0.63
0.17 0.15 0.14 0.12 0.12 0.13 0.13 0.14 0.17 0.19 0.18 0.17 0.17 0.18 0.18 0.17 0.20 0.23 0.26 0.33 0.37 0.35 0.31 0.34 0.38 0.42 0.45 0.43 0.44 0.47 0.49 0.46 0.45 0.48 0.46 0.41 0.38 0.41 0.46 0.51 0.54 0.55 0.56
0.04 0.04 0.05 0.05 0.06 0.07 0.08 0.09 0.11 0.13 0.13 0.15 0.16 0.16 0.17 0.17 0.18 0.21 0.25 0.31 0.37 0.38 0.37 0.38 0.40 0.40 0.40 0.40 0.42 0.42 0.41 0.41 0.45 0.46 0.43 0.41 0.45 0.51 0.54 0.57 0.62 0.61 0.66
0.05 0.05 0.06 0.06 0.07 0.07 0.08 0.09 0.11 0.12 0.14 0.17 0.19 0.20 0.22 0.22 0.20 0.28 0.35 0.36 0.40 0.43 0.47 0.45 0.41 0.38 0.37 0.35 0.35 0.36 0.37 0.40 0.44 0.43 0.48 0.51 0.52 0.53 0.53 0.53 0.61 0.68 0.69
0.09 0.09 0.09 0.09 0.10 0.10 0.11 0.11 0.13 0.15 0.17 0.20 0.21 0.22 0.21 0.24 0.27 0.34 0.39 0.42 0.47 0.54 0.59 0.51 0.40 0.34 0.33 0.34 0.36 0.37 0.38 0.39 0.41 0.45 0.50 0.54 0.58 0.58 0.56 0.53 0.58 0.67 0.66
0.15 0.16 0.16 0.16 0.15 0.15 0.16 0.16 0.17 0.18 0.20 0.21 0.22 0.24 0.24 0.25 0.30 0.33 0.37 0.42 0.47 0.54 0.53 0.42 0.35 0.33 0.33 0.35 0.38 0.42 0.41 0.38 0.43 0.50 0.55 0.58 0.63 0.64 0.63 0.62 0.60 0.64 0.62
0.15 0.20 0.22 0.21 0.23 0.24 0.24 0.24 0.25 0.25 0.25 0.23 0.24 0.29 0.30 0.31 0.32 0.34 0.39 0.46 0.47 0.44 0.37 0.31 0.31 0.32 0.36 0.41 0.43 0.46 0.46 0.46 0.48 0.50 0.53 0.59 0.67 0.73 0.70 0.64 0.63 0.65 0.67
0.14 0.17 0.20 0.23 0.25 0.27 0.28 0.29 0.29 0.28 0.26 0.24 0.24 0.28 0.34 0.39 0.40 0.40 0.43 0.44 0.39 0.32 0.27 0.27 0.30 0.35 0.41 0.45 0.48 0.51 0.54 0.56 0.54 0.59 0.60 0.61 0.67 0.79 0.74 0.63 0.63 0.63 0.68
0.16 0.21 0.23 0.24 0.25 0.28 0.30 0.30 0.30 0.29 0.28 0.26 0.24 0.24 0.33 0.45 0.42 0.36 0.36 0.36 0.36 0.32 0.30 0.31 0.33 0.37 0.44 0.49 0.53 0.56 0.59 0.58 0.60 0.64 0.65 0.66 0.68 0.78 0.78 0.70 0.68 0.71 0.66
0.19 0.23 0.28 0.26 0.24 0.26 0.30 0.31 0.31 0.30 0.29 0.26 0.23 0.27 0.43 0.51 0.43 0.35 0.33 0.34 0.36 0.38 0.39 0.40 0.40 0.44 0.49 0.55 0.59 0.60 0.59 0.55 0.57 0.64 0.66 0.66 0.70 0.74 0.69 0.71 0.71 0.74 0.77
0.22 0.23 0.26 0.27 0.28 0.30 0.34 0.34 0.34 0.34 0.33 0.32 0.30 0.33 0.45 0.45 0.38 0.35 0.34 0.34 0.36 0.39 0.42 0.49 0.50 0.48 0.54 0.65 0.71 0.73 0.65 0.56 0.54 0.64 0.68 0.64 0.66 0.68 0.72 0.80 0.82 0.84 0.81
0.24 0.25 0.27 0.29 0.31 0.37 0.39 0.35 0.36 0.37 0.37 0.38 0.38 0.39 0.41 0.41 0.38 0.37 0.37 0.38 0.41 0.44 0.45 0.50 0.54 0.49 0.49 0.58 0.68 0.84 0.88 0.73 0.64 0.72 0.88 0.88 0.83 0.85 0.91 0.94 0.86 0.80 0.70
0.25 0.28 0.30 0.31 0.33 0.36 0.37 0.36 0.36 0.37 0.39 0.41 0.41 0.41 0.40 0.40 0.41 0.40 0.42 0.43 0.45 0.45 0.45 0.49 0.51 0.50 0.50 0.56 0.62 0.67 0.76 0.86 1.04 1.16 1.26 1.37 1.19 0.98 0.94 0.89 0.78 0.71 0.68
0.28 0.30 0.32 0.33 0.35 0.36 0.37 0.36 0.36 0.37 0.39 0.39 0.40 0.39 0.39 0.40 0.41 0.42 0.44 0.45 0.45 0.43 0.41 0.44 0.50 0.52 0.53 0.55 0.58 0.61 0.66 0.82 1.10 1.37 1.39 1.30 1.09 0.91 0.91 0.89 0.80 0.74 0.72
0.31 0.33 0.35 0.37 0.38 0.37 0.37 0.37 0.37 0.38 0.39 0.38 0.38 0.40 0.40 0.41 0.41 0.41 0.42 0.44 0.44 0.41 0.39 0.39 0.42 0.48 0.52 0.52 0.49 0.53 0.66 0.76 0.81 0.88 1.14 1.25 1.10 0.91 0.89 0.96 0.87 0.82 0.78